�������l�o���
Date,Time,MP-1(��Sv/h),MP-2(��Sv/h),MP-3(��Sv/h),MP-4(��Sv/h),MP-5(��Sv/h),MP-6(��Sv/h),MP-7(��Sv/h),MP-8(��Sv/h),����,����(m/s),���J
2020/03/23,00:00,0.708,1.022,0.676,1.246,0.894,0.403,0.705,0.667,�k�k��,5.0,��
2020/03/23,00:10,0.707,1.023,0.679,1.246,0.891,0.404,0.706,0.668,�k,4.2,��
2020/03/23,00:20,0.708,1.021,0.676,1.245,0.893,0.403,0.707,0.669,�k�k��,7.2,��
2020/03/23,00:30,0.708,1.021,0.677,1.246,0.892,0.403,0.705,0.667,�k�k��,7.0,��
2020/03/23,00:40,0.705,1.021,0.679,1.247,0.890,0.405,0.705,0.667,�k�k��,7.2,��
2020/03/23,00:50,0.708,1.022,0.677,1.244,0.893,0.403,0.706,0.667,�k�k��,8.4,��
2020/03/23,01:00,0.706,1.021,0.677,1.246,0.892,0.403,0.706,0.669,�k�k��,8.9,��
2020/03/23,01:10,0.708,1.021,0.676,1.246,0.892,0.403,0.706,0.667,�k�k��,8.5,��
2020/03/23,01:20,0.707,1.024,0.676,1.246,0.892,0.402,0.706,0.667,�k�k��,8.5,��
2020/03/23,01:30,0.704,1.021,0.678,1.247,0.893,0.402,0.705,0.668,�k�k��,8.2,��
2020/03/23,01:40,0.707,1.025,0.677,1.245,0.892,0.402,0.707,0.666,�k�k��,8.3,��
2020/03/23,01:50,0.707,1.021,0.677,1.245,0.892,0.402,0.705,0.667,�k�k��,9.3,��
2020/03/23,02:00,0.708,1.021,0.678,1.244,0.893,0.402,0.706,0.668,�k�k��,9.0,��
2020/03/23,02:10,0.706,1.024,0.678,1.246,0.891,0.402,0.705,0.667,�k�k��,7.7,��
2020/03/23,02:20,0.707,1.020,0.676,1.246,0.892,0.403,0.706,0.667,�k�k��,7.3,��
2020/03/23,02:30,0.708,1.023,0.676,1.246,0.891,0.403,0.707,0.669,�k�k��,8.5,��
2020/03/23,02:40,0.708,1.023,0.677,1.244,0.893,0.402,0.704,0.669,�k�k��,9.8,��
2020/03/23,02:50,0.707,1.023,0.677,1.246,0.894,0.401,0.706,0.666,�k��,10.2,��
2020/03/23,03:00,0.706,1.020,0.675,1.245,0.892,0.401,0.705,0.667,�k�k��,9.4,��
2020/03/23,03:10,0.706,1.022,0.677,1.245,0.891,0.401,0.705,0.667,�k�k��,9.6,��
2020/03/23,03:20,0.705,1.022,0.677,1.245,0.891,0.402,0.705,0.669,�k�k��,7.1,��
2020/03/23,03:30,0.708,1.022,0.677,1.245,0.894,0.402,0.705,0.667,�k�k��,8.5,��
2020/03/23,03:40,0.706,1.021,0.677,1.245,0.893,0.401,0.705,0.668,�k�k��,7.7,��
2020/03/23,03:50,0.705,1.022,0.674,1.244,0.891,0.403,0.706,0.667,�k�k��,6.5,��
2020/03/23,04:00,0.706,1.023,0.676,1.245,0.890,0.402,0.705,0.667,�k�k��,6.2,��
2020/03/23,04:10,0.705,1.026,0.676,1.244,0.892,0.402,0.706,0.668,�k�k��,4.2,��
2020/03/23,04:20,0.704,1.025,0.676,1.246,0.890,0.402,0.705,0.667,�k�k��,4.1,��
2020/03/23,04:30,0.705,1.022,0.677,1.245,0.891,0.402,0.704,0.668,�k�k��,4.2,��
2020/03/23,04:40,0.705,1.024,0.676,1.245,0.892,0.401,0.704,0.668,�k�k��,3.5,��
2020/03/23,04:50,0.705,1.023,0.677,1.247,0.890,0.401,0.704,0.668,�k��,2.8,��
2020/03/23,05:00,0.704,1.026,0.676,1.245,0.892,0.401,0.703,0.667,�k��,2.6,��
2020/03/23,05:10,0.703,1.023,0.675,1.246,0.891,0.399,0.704,0.668,�k�k��,2.5,��
2020/03/23,05:20,0.706,1.022,0.675,1.246,0.892,0.401,0.703,0.668,�k�k��,2.5,��
2020/03/23,05:30,0.705,1.022,0.676,1.246,0.892,0.402,0.704,0.666,�k��,2.9,��
2020/03/23,05:40,0.704,1.021,0.675,1.243,0.892,0.401,0.702,0.667,�k��,4.1,��
2020/03/23,05:50,0.702,1.022,0.675,1.247,0.890,0.402,0.703,0.668,�k��,5.8,��
2020/03/23,06:00,0.705,1.021,0.676,1.245,0.891,0.401,0.704,0.666,�k��,5.9,��
2020/03/23,06:10,0.704,1.023,0.677,1.243,0.891,0.400,0.701,0.666,�k��,6.1,��
2020/03/23,06:20,0.705,1.022,0.675,1.246,0.891,0.402,0.703,0.668,�k��,6.0,��
2020/03/23,06:30,0.703,1.021,0.674,1.246,0.890,0.400,0.704,0.665,�k��,5.1,��
2020/03/23,06:40,0.704,1.021,0.674,1.247,0.892,0.401,0.702,0.667,�k��,5.6,��
2020/03/23,06:50,0.705,1.024,0.676,1.247,0.891,0.402,0.704,0.667,�k��,5.4,��
2020/03/23,07:00,0.706,1.020,0.675,1.246,0.891,0.402,0.705,0.666,�k��,5.0,��
2020/03/23,07:10,0.705,1.021,0.675,1.245,0.891,0.401,0.705,0.668,�k��,5.9,��
2020/03/23,07:20,0.706,1.022,0.674,1.244,0.890,0.401,0.704,0.667,�k��,5.6,��
2020/03/23,07:30,0.706,1.021,0.676,1.246,0.889,0.401,0.703,0.667,�k��,5.6,��
2020/03/23,07:40,0.706,1.023,0.673,1.243,0.892,0.400,0.707,0.667,�k�k��,4.8,��
2020/03/23,07:50,0.705,1.023,0.673,1.244,0.891,0.400,0.706,0.667,�k,4.0,��
2020/03/23,08:00,0.704,1.023,0.676,1.246,0.891,0.402,0.704,0.667,�k,3.9,��
2020/03/23,08:10,0.706,1.025,0.674,1.246,0.890,0.402,0.705,0.669,�k,3.9,��
2020/03/23,08:20,0.706,1.022,0.676,1.246,0.893,0.401,0.705,0.668,�k��,2.6,��
2020/03/23,08:30,0.708,1.021,0.676,1.247,0.893,0.403,0.704,0.668,�k��,4.6,��
2020/03/23,08:40,0.706,1.022,0.675,1.246,0.893,0.402,0.704,0.668,�k��,6.4,��
2020/03/23,08:50,0.707,1.021,0.676,1.248,0.893,0.401,0.704,0.669,�k��,7.9,��
2020/03/23,09:00,0.706,1.020,0.675,1.248,0.891,0.401,0.703,0.669,�k��,5.3,��
2020/03/23,09:10,0.709,1.022,0.676,1.248,0.891,0.404,0.703,0.670,�k��,4.1,��
2020/03/23,09:20,0.708,1.022,0.675,1.246,0.892,0.401,0.704,0.666,�k�k��,4.5,��
2020/03/23,09:30,0.708,1.020,0.675,1.247,0.892,0.402,0.703,0.666,�k��,3.7,��
2020/03/23,09:40,0.708,1.020,0.676,1.247,0.893,0.402,0.704,0.667,�k��,6.5,��
2020/03/23,09:50,0.707,1.022,0.677,1.249,0.892,0.402,0.703,0.667,�k�k��,5.8,��
2020/03/23,10:00,0.708,1.024,0.677,1.247,0.892,0.401,0.702,0.667,�k�k��,7.6,��
2020/03/23,10:10,0.710,1.022,0.676,1.249,0.893,0.402,0.703,0.666,�k��,9.2,��
2020/03/23,10:20,0.710,1.022,0.678,1.249,0.896,0.399,0.702,0.668,�k�k��,9.6,��
2020/03/23,10:30,0.708,1.026,0.677,1.248,0.895,0.401,0.705,0.665,�k��,8.0,��
2020/03/23,10:40,0.711,1.024,0.677,1.248,0.895,0.398,0.703,0.666,�k��,7.1,��
2020/03/23,10:50,0.708,1.022,0.677,1.249,0.895,0.401,0.704,0.668,�k�k��,6.0,��
2020/03/23,11:00,0.708,1.024,0.676,1.251,0.894,0.400,0.704,0.667,�k�k��,7.4,��
2020/03/23,11:10,0.709,1.023,0.679,1.247,0.892,0.400,0.704,0.666,�k��,6.0,��
2020/03/23,11:20,0.709,1.023,0.679,1.249,0.892,0.400,0.704,0.667,�k��,4.9,��
2020/03/23,11:30,0.706,1.022,0.678,1.251,0.891,0.401,0.703,0.667,�k��,3.8,��
2020/03/23,11:40,0.707,1.024,0.679,1.249,0.893,0.402,0.704,0.666,�k��,3.2,��
2020/03/23,11:50,0.706,1.023,0.678,1.248,0.894,0.402,0.703,0.668,��,2.2,��
2020/03/23,12:00,0.706,1.023,0.677,1.248,0.894,0.401,0.703,0.667,���k��,2.5,��
2020/03/23,12:10,0.707,1.023,0.679,1.249,0.892,0.402,0.704,0.667,�k�k��,3.4,��
2020/03/23,12:20,0.708,1.023,0.678,1.249,0.893,0.402,0.703,0.666,�k��,5.0,��
2020/03/23,12:30,0.708,1.024,0.679,1.250,0.894,0.403,0.704,0.666,�k��,10.0,��
2020/03/23,12:40,0.710,1.026,0.679,1.252,0.893,0.403,0.704,0.666,�k��,6.8,��
2020/03/23,12:50,0.709,1.024,0.681,1.252,0.894,0.404,0.705,0.668,�k��,9.9,��
2020/03/23,13:00,0.709,1.025,0.677,1.249,0.895,0.403,0.703,0.667,�k��,10.2,��
2020/03/23,13:10,0.710,1.026,0.679,1.250,0.894,0.402,0.703,0.667,�k��,10.2,��
2020/03/23,13:20,0.708,1.027,0.677,1.250,0.895,0.403,0.705,0.667,�k��,9.9,��
2020/03/23,13:30,0.710,1.024,0.676,1.254,0.897,0.402,0.704,0.667,�k��,10.5,��
2020/03/23,13:40,0.708,1.023,0.677,1.252,0.895,0.404,0.705,0.667,���k��,5.9,��
2020/03/23,13:50,0.709,1.026,0.677,1.250,0.895,0.404,0.704,0.667,���k��,7.6,��
2020/03/23,14:00,0.710,1.027,0.676,1.251,0.896,0.403,0.704,0.667,���k��,10.0,��
2020/03/23,14:10,0.708,1.027,0.677,1.252,0.894,0.403,0.706,0.665,���k��,7.9,��
2020/03/23,14:20,0.709,1.025,0.677,1.249,0.895,0.403,0.705,0.666,�k��,8.8,��
2020/03/23,14:30,0.709,1.027,0.678,1.253,0.894,0.404,0.705,0.666,�k��,9.5,��
2020/03/23,14:40,0.709,1.025,0.678,1.253,0.894,0.403,0.707,0.668,���k��,11.1,��
2020/03/23,14:50,0.709,1.026,0.676,1.255,0.895,0.403,0.705,0.666,�k��,9.3,��
2020/03/23,15:00,0.710,1.026,0.676,1.253,0.894,0.401,0.706,0.667,�k��,8.7,��
2020/03/23,15:10,0.709,1.024,0.678,1.253,0.895,0.403,0.706,0.666,�k�k��,9.7,��
2020/03/23,15:20,0.711,1.024,0.677,1.252,0.895,0.404,0.706,0.667,�k��,7.3,��
2020/03/23,15:30,0.709,1.027,0.677,1.255,0.896,0.405,0.707,0.668,�k��,6.7,��
2020/03/23,15:40,0.711,1.026,0.676,1.253,0.896,0.404,0.703,0.666,�k�k��,7.6,��
2020/03/23,15:50,0.709,1.028,0.675,1.255,0.894,0.403,0.704,0.666,�k��,8.3,��
2020/03/23,16:00,0.709,1.028,0.678,1.255,0.896,0.405,0.706,0.666,�k��,6.6,��
2020/03/23,16:10,0.708,1.027,0.677,1.253,0.896,0.403,0.705,0.666,�k��,6.4,��
2020/03/23,16:20,0.709,1.028,0.677,1.252,0.897,0.404,0.705,0.667,�k��,6.8,��
2020/03/23,16:30,0.709,1.030,0.676,1.252,0.896,0.404,0.705,0.668,�k��,6.0,��
2020/03/23,16:40,0.711,1.029,0.679,1.256,0.896,0.405,0.704,0.667,�k�k��,6.3,��
2020/03/23,16:50,0.712,1.027,0.680,1.253,0.896,0.404,0.705,0.668,�k��,7.0,��
2020/03/23,17:00,0.711,1.029,0.680,1.253,0.895,0.403,0.704,0.670,�k��,6.3,��
2020/03/23,17:10,0.712,1.030,0.680,1.253,0.898,0.404,0.705,0.669,�k�k��,4.8,��
2020/03/23,17:20,0.712,1.030,0.679,1.255,0.895,0.402,0.704,0.670,�k�k��,5.7,��
2020/03/23,17:30,0.709,1.029,0.681,1.252,0.897,0.403,0.704,0.670,�k,6.1,��
2020/03/23,17:40,0.710,1.030,0.679,1.254,0.896,0.403,0.704,0.671,�k�k��,6.2,��
2020/03/23,17:50,0.711,1.029,0.679,1.253,0.896,0.404,0.705,0.669,�k�k��,5.4,��
2020/03/23,18:00,0.710,1.030,0.681,1.257,0.897,0.404,0.705,0.670,�k�k��,6.5,��
2020/03/23,18:10,0.708,1.028,0.680,1.253,0.897,0.404,0.704,0.670,�k�k��,5.4,��
2020/03/23,18:20,0.712,1.031,0.678,1.253,0.898,0.405,0.705,0.668,�k�k��,4.3,��
2020/03/23,18:30,0.710,1.031,0.679,1.253,0.897,0.402,0.706,0.670,�k��,4.1,��
2020/03/23,18:40,0.708,1.029,0.679,1.253,0.895,0.403,0.707,0.669,���k��,3.8,��
2020/03/23,18:50,0.709,1.030,0.679,1.252,0.894,0.403,0.706,0.670,���k��,6.1,��
2020/03/23,19:00,0.710,1.028,0.679,1.251,0.896,0.404,0.706,0.670,�k��,6.6,��
2020/03/23,19:10,0.710,1.027,0.680,1.251,0.899,0.403,0.705,0.670,�k��,7.1,��
2020/03/23,19:20,0.710,1.027,0.678,1.255,0.896,0.403,0.706,0.668,�k��,5.3,��
2020/03/23,19:30,0.708,1.027,0.679,1.253,0.895,0.402,0.705,0.670,�k��,6.9,��
2020/03/23,19:40,0.710,1.031,0.678,1.254,0.896,0.403,0.704,0.668,�k�k��,6.0,��
2020/03/23,19:50,0.709,1.029,0.678,1.254,0.895,0.402,0.705,0.668,�k��,6.5,��
2020/03/23,20:00,0.708,1.030,0.678,1.256,0.898,0.401,0.704,0.668,�k��,6.3,��
2020/03/23,20:10,0.708,1.027,0.678,1.252,0.900,0.402,0.705,0.667,�k��,5.7,��
2020/03/23,20:20,0.707,1.029,0.678,1.254,0.897,0.402,0.705,0.669,�k��,5.8,��
2020/03/23,20:30,0.711,1.027,0.678,1.251,0.897,0.403,0.705,0.668,�k��,5.9,��
2020/03/23,20:40,0.708,1.031,0.677,1.254,0.895,0.402,0.704,0.669,�k��,5.4,��
2020/03/23,20:50,0.709,1.027,0.680,1.250,0.898,0.402,0.704,0.669,�k�k��,4.7,��
2020/03/23,21:00,0.707,1.032,0.678,1.251,0.897,0.401,0.704,0.669,�k��,5.1,��
2020/03/23,21:10,0.708,1.027,0.677,1.254,0.899,0.401,0.703,0.669,�k��,4.1,��
2020/03/23,21:20,0.710,1.029,0.678,1.252,0.897,0.403,0.704,0.669,�k�k��,4.0,��
2020/03/23,21:30,0.708,1.028,0.678,1.253,0.896,0.402,0.704,0.666,�k,4.0,��
2020/03/23,21:40,0.709,1.027,0.679,1.254,0.896,0.401,0.703,0.666,�k,3.4,��
2020/03/23,21:50,0.710,1.027,0.677,1.253,0.897,0.402,0.706,0.667,�k,3.2,��
2020/03/23,22:00,0.706,1.028,0.677,1.254,0.895,0.401,0.705,0.667,�k,3.4,��
2020/03/23,22:10,0.708,1.028,0.679,1.253,0.898,0.402,0.706,0.668,�k�k��,2.6,��
2020/03/23,22:20,0.710,1.028,0.677,1.251,0.894,0.403,0.705,0.667,�k�k��,2.3,��
2020/03/23,22:30,0.708,1.030,0.678,1.253,0.896,0.401,0.703,0.669,�k�k��,2.6,��
2020/03/23,22:40,0.707,1.028,0.678,1.252,0.897,0.402,0.704,0.670,�k��,2.3,��
2020/03/23,22:50,0.705,1.026,0.678,1.252,0.894,0.402,0.704,0.667,�k��,2.3,��
2020/03/23,23:00,0.708,1.029,0.677,1.255,0.897,0.402,0.704,0.668,�k��,2.6,��
2020/03/23,23:10,0.708,1.029,0.677,1.252,0.898,0.403,0.704,0.667,�k��,2.6,��
2020/03/23,23:20,0.708,1.028,0.678,1.253,0.897,0.402,0.704,0.668,�k�k��,2.9,��
2020/03/23,23:30,0.707,1.029,0.677,1.251,0.895,0.402,0.704,0.667,�k,3.1,��
2020/03/23,23:40,0.708,1.029,0.677,1.254,0.898,0.403,0.704,0.668,�k�k��,3.4,��
2020/03/23,23:50,0.709,1.025,0.677,1.253,0.898,0.402,0.704,0.669,�k�k��,3.6,��
